Back to catalog

SL-16 DEB

AliveLEO
NORAD 22618·DEBRIS·🇷🇺 Russia

Launched Mar 26, 1993 from Baikonur Cosmodrome

Loading…

Next Passes (next 24 hours)

TLE

FreshSource: Space-Track

Epoch: Sep 14, 2026, 14:37 UTC

1 22618U 93016AC  26257.60940535  .00000162  00000-0  17005-3 0  9997
2 22618  70.9916 122.5767 0155014 172.4372 187.9127 13.83605456686854

Track SL-16 DEB in real time with AllMySat

Download on the App Store